Weather History for Haleyville, AL

Change the Weather History Date:

Friday, November 30, 2012

  Actual Average (KJFX) Record (KJFX)
Temperature  
Mean Temperature 48 °F -  
Max Temperature 61 °F 57 °F 76 °F (1991)
Min Temperature 34 °F 32 °F 12 °F (1976)
Degree Days  
Heating Degree Days 18    
Moisture  
Dew Point 39 °F    
Average Humidity 82    
Maximum Humidity 100    
Minimum Humidity 46    
Precipitation  
Precipitation 0.00 in - - ()
Sea Level Pressure  
Sea Level Pressure 30.33 in    
Wind  
Wind Speed 4 mph (South)    
Max Wind Speed 10 mph    
Max Gust Speed -    
Visibility 8 miles    
Events      
Averages and records for this station are not official NWS values.
T = Trace of Precipitation, MM = Missing Value Source: NWS Daily Summary

Daily Weather History Graph

Daily Weather History Graph

Search for Another Location

Airport:

Trip Planner

Search our weather history database for the weather conditions in past years. The results will help you decide how hot, cold, wet, or windy it might be!

Date:

Astronomy

Nov. 30, 2012 Rise Set
Actual Time 6:37 AM CST 4:40 PM CST
Civil Twilight 6:10 AM CST 5:07 PM CST
Nautical Twilight 5:39 AM CST 5:38 PM CST
Astronomical Twilight 5:09 AM CST 6:09 PM CST
Moon 6:34 PM CST (11/30) 8:09 AM CST (11/30)
Length of Visible Light 10h 57m
Length of Day
10h 02m
Waning Gibbous, 96% of the Moon is Illuminated
Nov 30
Waning Gibbous
Dec 6
Last Quarter
Dec 13
New
Dec 19
First Quarter
Dec 28
Full

Hourly Weather History & Observations

Time (CST) Temp. Windchill Dew Point Humidity Pressure Visibility Wind Dir Wind Speed Gust Speed Precip Events Conditions
12:56 AM 41.0 °F 38.0 °F 36.9 °F 85% 30.35 in 10.0 mi South 4.6 mph - N/A   Clear
1:56 AM 41.9 °F 38.2 °F 37.9 °F 86% 30.35 in 9.0 mi South 5.8 mph - N/A   Clear
2:56 AM 39.9 °F 36.7 °F 36.9 °F 89% 30.34 in 9.0 mi SSE 4.6 mph - N/A   Scattered Clouds
3:05 AM 39.2 °F 37.0 °F 35.6 °F 87% 30.31 in 9.0 mi Variable 3.5 mph - N/A   Mostly Cloudy
3:56 AM 39.9 °F 36.7 °F 36.9 °F 89% 30.34 in 9.0 mi South 4.6 mph - N/A   Mostly Cloudy
4:56 AM 39.9 °F - 37.9 °F 93% 30.35 in 9.0 mi Calm Calm - N/A   Overcast
5:27 AM 39.2 °F 35.9 °F 37.4 °F 93% 30.32 in 8.0 mi SSE 4.6 mph - N/A   Scattered Clouds
5:56 AM 37.9 °F 35.5 °F 36.9 °F 96% 30.36 in 7.0 mi South 3.5 mph - N/A   Clear
6:27 AM 35.6 °F - 35.6 °F 100% 30.35 in 1.8 mi Calm Calm - N/A   Clear
6:38 AM 35.6 °F - 35.6 °F 100% 30.35 in 1.0 mi Calm Calm - N/A   Clear
6:56 AM 34.9 °F 30.8 °F 34.9 °F 100% 30.37 in 2.0 mi South 4.6 mph - N/A   Clear
7:08 AM 35.6 °F 31.7 °F 35.6 °F 100% 30.34 in 3.0 mi SSW 4.6 mph - N/A   Clear
7:56 AM 43.0 °F 39.5 °F 41.0 °F 93% 30.38 in 6.0 mi South 5.8 mph - N/A   Clear
8:56 AM 50.0 °F - 43.9 °F 79% 30.39 in 9.0 mi SSW 8.1 mph - N/A   Clear
9:56 AM 54.9 °F - 43.9 °F 66% 30.39 in 10.0 mi SSW 10.4 mph - N/A   Clear
10:56 AM 56.8 °F - 43.0 °F 60% 30.37 in 10.0 mi South 8.1 mph - N/A   Clear
11:56 AM 59.0 °F - 41.0 °F 51% 30.34 in 10.0 mi Variable 4.6 mph - N/A   Clear
12:56 PM 61.0 °F - 39.9 °F 46% 30.31 in 10.0 mi Variable 6.9 mph - N/A   Clear
1:56 PM 61.0 °F - 41.9 °F 49% 30.29 in 10.0 mi South 8.1 mph - N/A   Clear
2:56 PM 61.0 °F - 43.9 °F 53% 30.28 in 10.0 mi Variable 6.9 mph - N/A   Clear
3:56 PM 59.0 °F - 43.9 °F 57% 30.28 in 10.0 mi South 6.9 mph - N/A   Clear
4:56 PM 54.0 °F - 43.9 °F 69% 30.29 in 10.0 mi Calm Calm - N/A   Clear
5:56 PM 48.9 °F - 43.0 °F 80% 30.30 in 10.0 mi Calm Calm - N/A   Clear
6:56 PM 43.9 °F - 39.9 °F 86% 30.30 in 10.0 mi Calm Calm - N/A   Clear
7:56 PM 43.9 °F 42.3 °F 41.0 °F 90% 30.30 in 10.0 mi South 3.5 mph - N/A   Clear
9:56 PM 37.9 °F - 36.9 °F 96% 30.30 in 8.0 mi Calm Calm - N/A   Clear
10:56 PM 37.9 °F - 36.9 °F 96% 30.31 in 8.0 mi Calm Calm - N/A   Clear
11:56 PM 36.0 °F - 36.0 °F 100% 30.31 in 8.0 mi Calm Calm - N/A   Clear